Overview Statistics Trail Chart Weather Telemetry Raw packets
 

This is the latest recevied weather packets stored in our database for station/object SR3WXA. If no packets are shown the sender has not sent any weather packets the latest 10 day(s).

<< 42 43 44 45 46 47 48 >>
Time Temp. Humidity Pressure Rain* Wind** Luminosity Snow
1788542781 20° C 92% 1004.9 hPa 1.78 mm - 0 W/m² -
1788542654 20° C 92% 1004.9 hPa 1.78 mm - 0 W/m² -
1788542412 20° C 92% 1004.8 hPa 1.52 mm - 0 W/m² -
1788542354 20° C 92% 1004.8 hPa 1.52 mm - 0 W/m² -
1788542115 20° C 90% 1004.4 hPa 1.02 mm - 0 W/m² -
1788542054 20° C 90% 1004.4 hPa 1.02 mm - 0 W/m² -
1788541521 21.67° C 83% 1004.5 hPa 0.51 mm - 0 W/m² -
1788541458 21.67° C 83% 1004.5 hPa 0.51 mm - 0 W/m² -
1788541240 23.33° C 77% 1004.4 hPa 0 mm - 0 W/m² -
1788541158 23.33° C 77% 1004.4 hPa 0 mm - 0 W/m² -
1788540929 23.89° C 73% 1003.2 hPa 0 mm - 0 W/m² -
1788540858 23.89° C 73% 1003.2 hPa 0 mm - 0 W/m² -
1788540630 24.44° C 71% 1003 hPa 0 mm - 7 W/m² -
1788540558 24.44° C 71% 1003 hPa 0 mm - 7 W/m² -
1788540316 24.44° C 69% 1003 hPa 0 mm - 0 W/m² -
1788540258 24.44° C 69% 1003 hPa 0 mm - 0 W/m² -
1788539696 24.44° C 68% 1003 hPa 0 mm - 14 W/m² -
1788539658 24.44° C 68% 1003 hPa 0 mm - 14 W/m² -
1788539434 24.44° C 68% 1003.1 hPa 0 mm - 21 W/m² -
1788539358 24.44° C 68% 1003.1 hPa 0 mm - 21 W/m² -
1788538861 24.44° C 68% 1003 hPa 0 mm - 32 W/m² -
1788538790 24.44° C 68% 1003 hPa 0 mm - 32 W/m² -
1788538557 24.44° C 68% 1003.1 hPa 0 mm - 21 W/m² -
1788538491 24.44° C 68% 1003.1 hPa 0 mm - 21 W/m² -
1788538235 24.44° C 68% 1003 hPa 0 mm - 30 W/m² -

* Rain latest hour (hover to see other rain measurements)
** Current wind speed in m/s (hover to see current wind gust speed)